Terminal Aerodrome Forecast
Issued by NWS Pueblo, CO

Home | Current Version | Previous Version | Text Only | Print | Product List | Glossary On
Versions: 1 2 3 4 5 6 7 8 9 10 11 12 13 14 15 16 17 18 19 20 21 22 23 24 25 26 27 28 29
000
FTUS45 KPUB 011720
TAFALS
TAF
KALS 011720Z 0118/0218 27007KT P6SM BKN150
     FM012100 25010KT P6SM VCTS SCT060CB BKN120
     FM020400 VRB05KT P6SM FEW060 SCT120
     FM021200 VRB04KT P6SM FEW200=

USA.gov is the U.S. government's official web portal to all federal, state and local government web resources and services.